TimeEEST,TemperatureF,Dew PointF,Humidity,Sea Level PressureIn,VisibilityMPH,Wind Direction,Wind SpeedMPH,Gust SpeedMPH,PrecipitationIn,Events,Conditions,WindDirDegrees,DateUTC
12:20 AM,39.2,35.6,87,30.15,-9999.0,Calm,Calm,-,N/A,,Clear,0,2012-10-22 21:20:00
12:50 AM,41.0,37.4,87,30.15,-9999.0,West,2.3,-,N/A,,Clear,270,2012-10-22 21:50:00
1:20 AM,37.4,35.6,93,30.15,-9999.0,South,2.3,-,N/A,,Clear,170,2012-10-22 22:20:00
1:50 AM,37.4,35.6,93,30.15,-9999.0,Calm,Calm,-,N/A,,Clear,0,2012-10-22 22:50:00
2:20 AM,37.4,35.6,93,30.15,-9999.0,Variable,2.3,-,N/A,,Clear,0,2012-10-22 23:20:00
2:50 AM,37.4,35.6,93,30.12,-9999.0,Variable,1.2,-,N/A,,Clear,0,2012-10-22 23:50:00
3:00 AM,37,35,88,,12,SW,1.2,,,,,230,2012-10-23 00:00:00
3:20 AM,37.4,33.8,87,30.12,-9999.0,NW,3.5,-,N/A,,Clear,320,2012-10-23 00:20:00
3:50 AM,37.4,33.8,87,30.12,-9999.0,Variable,2.3,-,N/A,,Clear,0,2012-10-23 00:50:00
4:20 AM,35.6,33.8,93,30.12,-9999.0,Variable,1.2,-,N/A,,Clear,0,2012-10-23 01:20:00
4:50 AM,35.6,33.8,93,30.12,-9999.0,Variable,2.3,-,N/A,,Clear,0,2012-10-23 01:50:00
5:20 AM,35.6,33.8,93,30.12,-9999.0,SSW,3.5,-,N/A,,Clear,210,2012-10-23 02:20:00
5:50 AM,41.0,37.4,87,30.12,-9999.0,East,4.6,-,N/A,,Clear,100,2012-10-23 02:50:00
6:20 AM,46.4,37.4,71,30.12,-9999.0,East,9.2,-,N/A,,Clear,80,2012-10-23 03:20:00
6:50 AM,42.8,37.4,81,30.12,-9999.0,NNE,6.9,-,N/A,,Clear,30,2012-10-23 03:50:00
7:20 AM,42.8,37.4,81,30.12,-9999.0,Variable,2.3,-,N/A,,Clear,0,2012-10-23 04:20:00
7:50 AM,44.6,37.4,76,30.12,-9999.0,NNW,3.5,-,N/A,,Clear,330,2012-10-23 04:50:00
8:20 AM,48.2,39.2,71,30.12,-9999.0,Variable,2.3,-,N/A,,Clear,0,2012-10-23 05:20:00
8:50 AM,48.2,39.2,71,30.12,-9999.0,East,10.4,-,N/A,,Clear,100,2012-10-23 05:50:00
9:20 AM,50.0,39.2,66,30.12,-9999.0,SE,6.9,-,N/A,,Clear,130,2012-10-23 06:20:00
9:50 AM,48.2,41.0,76,30.15,6.2,ESE,4.6,-,N/A,,Mostly Cloudy,120,2012-10-23 06:50:00
10:50 AM,48.2,44.6,87,30.15,6.2,ENE,9.2,-,N/A,Rain,Light Rain Showers,70,2012-10-23 07:50:00
11:20 AM,48.2,44.6,87,30.15,6.2,East,8.1,-,N/A,Rain,Light Rain Showers,100,2012-10-23 08:20:00
11:50 AM,50.0,44.6,82,30.15,6.2,East,5.8,-,N/A,Rain,Light Rain Showers,90,2012-10-23 08:50:00
12:20 PM,48.2,44.6,87,30.12,6.2,East,6.9,-,N/A,Rain,Light Rain Showers,80,2012-10-23 09:20:00
12:50 PM,50.0,44.6,82,30.12,6.2,NE,5.8,-,N/A,Rain,Light Rain Showers,40,2012-10-23 09:50:00
1:20 PM,50.0,44.6,82,30.12,6.2,East,4.6,-,N/A,,Mostly Cloudy,80,2012-10-23 10:20:00
1:50 PM,51.8,44.6,76,30.12,6.2,East,5.8,-,N/A,,Mostly Cloudy,90,2012-10-23 10:50:00
2:20 PM,51.8,42.8,71,30.09,6.2,East,5.8,-,N/A,,Mostly Cloudy,90,2012-10-23 11:20:00
2:50 PM,51.8,42.8,71,30.09,6.2,East,5.8,-,N/A,,Mostly Cloudy,80,2012-10-23 11:50:00
3:00 PM,52,43,61,,12,East,5.8,,,,Partly Cloudy,80,2012-10-23 12:00:00
3:20 PM,53.6,44.6,72,30.09,6.2,ENE,4.6,-,N/A,,Mostly Cloudy,60,2012-10-23 12:20:00
3:50 PM,51.8,42.8,71,30.09,6.2,NE,5.8,-,N/A,,Mostly Cloudy,50,2012-10-23 12:50:00
4:20 PM,51.8,42.8,71,30.12,6.2,ESE,4.6,-,N/A,Rain,Light Rain Showers,120,2012-10-23 13:20:00
4:50 PM,48.2,46.4,93,30.09,4.3,ENE,10.4,-,N/A,Rain,Light Rain Showers,70,2012-10-23 13:50:00
5:20 PM,48.2,44.6,87,30.09,4.3,East,6.9,-,N/A,Rain,Light Rain Showers,90,2012-10-23 14:20:00
5:50 PM,48.2,44.6,87,30.12,6.2,East,4.6,-,N/A,Rain,Light Rain Showers,100,2012-10-23 14:50:00
6:20 PM,48.2,44.6,87,30.12,6.2,East,5.8,-,N/A,Rain,Light Rain Showers,80,2012-10-23 15:20:00
6:50 PM,48.2,44.6,87,30.12,6.2,East,6.9,-,N/A,Rain,Light Rain Showers,80,2012-10-23 15:50:00
7:20 PM,48.2,46.4,93,30.12,6.2,ENE,5.8,-,N/A,Rain,Light Rain Showers,70,2012-10-23 16:20:00
7:50 PM,48.2,46.4,93,30.12,6.2,East,5.8,-,N/A,Rain,Light Rain Showers,90,2012-10-23 16:50:00
8:20 PM,48.2,44.6,87,30.12,6.2,NE,6.9,-,N/A,Rain,Light Rain Showers,40,2012-10-23 17:20:00
8:50 PM,48.2,44.6,87,30.12,6.2,East,3.5,-,N/A,Rain,Light Rain Showers,80,2012-10-23 17:50:00
9:00 PM,47,45,92,,12,East,3.5,,,Rain,Light Rain Showers,80,2012-10-23 18:00:00
9:20 PM,46.4,46.4,100,30.12,6.2,Variable,2.3,-,N/A,Rain,Light Rain Showers,0,2012-10-23 18:20:00
9:50 PM,48.2,46.4,93,30.12,6.2,SE,4.6,-,N/A,Rain,Light Rain Showers,140,2012-10-23 18:50:00
10:20 PM,46.4,46.4,100,30.12,6.2,ESE,2.3,-,N/A,Rain,Light Rain Showers,120,2012-10-23 19:20:00
10:50 PM,46.4,46.4,100,30.12,6.2,Variable,1.2,-,N/A,,Mostly Cloudy,0,2012-10-23 19:50:00
11:20 PM,46.4,46.4,100,30.12,6.2,Variable,2.3,-,N/A,,Mostly Cloudy,0,2012-10-23 20:20:00
11:50 PM,46.4,46.4,100,30.12,6.2,Calm,Calm,-,N/A,Rain,Light Rain Showers,0,2012-10-23 20:50:00